Welcome to Northern Hawkes Bay. New Zealand.
PWS Header
      nz Flag



Hit Counter


W3C Valid W3C Valid logo


    Wairoa

Select any of the Stations below to visit their websites.










Historic Data from Weather Underground
Select the location of interest below. Wairoa is the default. Please have patience, this Data is slow to load in.
Northern Hawkes Bay Historical Data
Daily Summary for February 15, 2017 Units:  English    Metric   Both
« Previous Day
Next Day »
Daily Weekly Monthly Yearly Custom
  High: Low: Average:
Temperature: 76.6 °F 60.3 °F 68.7 °F
Dew Point: 63.5 °F 54.9 °F 59.7 °F
Humidity: 90% 49% 73%
Wind Speed: 9.8mph 0mph 3.2mph
Wind Gust: 18.3mph - -
Wind- - South
Pressure: 30 in 29.8 in -
Precipitation: 0 in    
Historical Graphs
 
 
Tabular Data for February 15, 2017
Time Temperature Dew Point Pressure Wind Wind Speed Wind Gust Humidity Rainfall Rate (Hourly) solar
00:01 68 °F 58.3 °F 29.8 in Calm   0.7 mph 71% 0 in 0 W/m2
00:06 67.8 °F 58.8 °F 29.8 in Calm     73% 0 in 0 W/m2
00:11 67.5 °F 58.5 °F 29.8 in Calm     73% 0 in 0 W/m2
00:14 67.5 °F 58.8 °F 29.8 in Calm   0.7 mph 74% 0 in 0 W/m2
00:19 67.3 °F 58.6 °F 29.8 in Calm   0.7 mph 74% 0 in 0 W/m2
00:24 67.3 °F 58.6 °F 29.8 in Calm     74% 0 in 0 W/m2
00:29 67.3 °F 58.6 °F 29.8 in Calm     74% 0 in 0 W/m2
00:34 67.3 °F 58.6 °F 29.8 in Calm     74% 0 in 0 W/m2
00:40 67.1 °F 58.6 °F 29.8 in Calm     74% 0 in 0 W/m2
00:45 66.7 °F 58.3 °F 29.8 in Calm   2.2 mph 74% 0 in 0 W/m2
00:50 66.9 °F 58.8 °F 29.8 in NW 0.7 mph 2.2 mph 75% 0 in 0 W/m2
00:56 66.9 °F 58.8 °F 29.8 in NNW 0.7 mph 2.2 mph 75% 0 in 0 W/m2
01:01 66.7 °F 58.6 °F 29.8 in NNW 0.7 mph 2.2 mph 75% 0 in 0 W/m2
01:06 66.7 °F 58.6 °F 29.8 in Calm   2.2 mph 75% 0 in 0 W/m2
01:11 66.7 °F 58.6 °F 29.8 in Calm   2.2 mph 75% 0 in 0 W/m2
01:16 66.7 °F 58.6 °F 29.8 in Calm   2.2 mph 75% 0 in 0 W/m2
01:21 66.6 °F 58.5 °F 29.8 in Calm   1.6 mph 75% 0 in 0 W/m2
01:26 66.6 °F 58.5 °F 29.8 in Calm   1.6 mph 75% 0 in 0 W/m2
01:31 66.2 °F 58.1 °F 29.8 in Calm   1.6 mph 75% 0 in 0 W/m2
01:36 66 °F 58.6 °F 29.8 in Calm   0.7 mph 77% 0 in 0 W/m2
01:41 66 °F 58.6 °F 29.8 in Calm     77% 0 in 0 W/m2
01:46 65.8 °F 58.5 °F 29.8 in Calm     77% 0 in 0 W/m2
01:51 65.7 °F 58.6 °F 29.8 in Calm   1.6 mph 78% 0 in 0 W/m2
01:56 65.5 °F 58.5 °F 29.8 in Calm   1.6 mph 78% 0 in 0 W/m2
02:01 65.5 °F 58.5 °F 29.8 in Calm   1.6 mph 78% 0 in 0 W/m2
02:07 65.5 °F 58.5 °F 29.8 in Calm   1.6 mph 78% 0 in 0 W/m2
02:12 65.3 °F 58.3 °F 29.8 in Calm   1.6 mph 78% 0 in 0 W/m2
02:17 65.1 °F 58.1 °F 29.8 in NNE 0.7 mph 1.6 mph 78% 0 in 0 W/m2
02:23 64.9 °F 58.3 °F 29.8 in Calm   2.2 mph 79% 0 in 0 W/m2
02:28 64.8 °F 58.1 °F 29.8 in Calm   2.2 mph 79% 0 in 0 W/m2
02:33 64.6 °F 57.9 °F 29.8 in Calm     79% 0 in 0 W/m2
02:38 64.4 °F 58.1 °F 29.8 in Calm     80% 0 in 0 W/m2
02:43 64.4 °F 58.5 °F 29.8 in North 0.7 mph 2.2 mph 81% 0 in 0 W/m2
02:48 64.2 °F 58.3 °F 29.8 in North 0.7 mph 3.1 mph 81% 0 in 0 W/m2
02:53 64 °F 58.5 °F 29.8 in Calm   3.1 mph 82% 0 in 0 W/m2
02:58 63.9 °F 57.9 °F 29.8 in Calm   3.1 mph 81% 0 in 0 W/m2
03:03 63.9 °F 57.9 °F 29.8 in NE 0.7 mph 1.6 mph 81% 0 in 0 W/m2
03:08 63.9 °F 57.9 °F 29.8 in NNW 1.6 mph 3.1 mph 81% 0 in 0 W/m2
03:13 63.9 °F 57.9 °F 29.8 in NW 1.6 mph 3.1 mph 81% 0 in 0 W/m2
03:18 63.9 °F 57.9 °F 29.8 in NNW 0.7 mph 2.2 mph 81% 0 in 0 W/m2
03:23 63.5 °F 57.6 °F 29.8 in Calm   2.2 mph 81% 0 in 0 W/m2
03:28 63.5 °F 57.6 °F 29.8 in NNW 1.6 mph 2.2 mph 81% 0 in 0 W/m2
03:33 63.3 °F 57.7 °F 29.8 in NNW 1.6 mph 2.2 mph 82% 0 in 0 W/m2
03:38 63.3 °F 57.7 °F 29.8 in North 0.7 mph 3.1 mph 82% 0 in 0 W/m2
03:43 63.1 °F 57.9 °F 29.8 in Calm   3.1 mph 83% 0 in 0 W/m2
03:48 63 °F 57.7 °F 29.8 in Calm   2.2 mph 83% 0 in 0 W/m2
03:53 63 °F 57.7 °F 29.8 in NNW 0.7 mph 2.2 mph 83% 0 in 0 W/m2
03:58 63 °F 57.7 °F 29.8 in NNW 2.2 mph 3.1 mph 83% 0 in 0 W/m2
04:03 63 °F 57.7 °F 29.8 in NW 1.6 mph 3.1 mph 83% 0 in 0 W/m2
04:08 62.8 °F 57.9 °F 29.8 in NW 2.2 mph 3.1 mph 84% 0 in 0 W/m2
04:13 62.6 °F 57.7 °F 29.8 in NNW 2.2 mph 3.8 mph 84% 0 in 0 W/m2
04:18 62.6 °F 57.7 °F 29.8 in NNW 1.6 mph 3.8 mph 84% 0 in 0 W/m2
04:23 62.6 °F 57.7 °F 29.8 in NNW 0.7 mph 3.8 mph 84% 0 in 0 W/m2
04:28 62.8 °F 57.9 °F 29.8 in North 1.6 mph 3.1 mph 84% 0 in 0 W/m2
04:33 62.8 °F 57.6 °F 29.8 in Calm   3.1 mph 83% 0 in 0 W/m2
04:38 62.8 °F 57.6 °F 29.8 in NE 1.6 mph 3.1 mph 83% 0 in 0 W/m2
04:43 62.8 °F 57.2 °F 29.8 in Calm   3.1 mph 82% 0 in 0 W/m2
04:48 62.6 °F 57 °F 29.8 in Calm   3.1 mph 82% 0 in 0 W/m2
04:53 62.4 °F 57.2 °F 29.8 in Calm   0.7 mph 83% 0 in 0 W/m2
04:58 62.1 °F 57.2 °F 29.8 in Calm     84% 0 in 0 W/m2
05:03 61.7 °F 56.8 °F 29.8 in Calm     84% 0 in 0 W/m2
05:08 61.5 °F 56.7 °F 29.8 in Calm     84% 0 in 0 W/m2
05:13 61.5 °F 56.7 °F 29.8 in North 0.7 mph 1.6 mph 84% 0 in 0 W/m2
05:18 61.9 °F 57.4 °F 29.8 in NNE 0.7 mph 1.6 mph 85% 0 in 0 W/m2
05:23 62.1 °F 57.2 °F 29.8 in NNE 0.7 mph 1.6 mph 84% 0 in 0 W/m2
05:28 62.2 °F 57.4 °F 29.8 in NNE 0.7 mph 2.2 mph 84% 0 in 0 W/m2
05:33 62.2 °F 57.4 °F 29.8 in Calm   3.1 mph 84% 0 in 0 W/m2
05:38 62.2 °F 57.4 °F 29.8 in Calm   3.1 mph 84% 0 in 0 W/m2
05:43 62.1 °F 57.2 °F 29.8 in Calm   1.6 mph 84% 0 in 0 W/m2
05:48 61.7 °F 56.8 °F 29.8 in Calm   0.7 mph 84% 0 in 0 W/m2
05:53 61.5 °F 56.7 °F 29.9 in Calm   0.7 mph 84% 0 in 0 W/m2
05:58 61.5 °F 57 °F 29.9 in NW 1.6 mph 2.2 mph 85% 0 in 0 W/m2
06:15 61.3 °F 56.8 °F 29.8 in Calm   2.2 mph 85% 0 in 0 W/m2
06:20 61.2 °F 57 °F 29.9 in Calm   0.7 mph 86% 0 in 0 W/m2
06:25 61 °F 56.8 °F 29.9 in Calm   1.6 mph 86% 0 in 0 W/m2
06:30 60.6 °F 56.7 °F 29.9 in Calm   1.6 mph 87% 0 in 0 W/m2
06:36 60.4 °F 56.8 °F 29.9 in Calm   1.6 mph 88% 0 in 2 W/m2
06:41 60.3 °F 56.7 °F 29.9 in Calm     88% 0 in 5 W/m2
06:47 60.3 °F 57 °F 29.9 in Calm     89% 0 in 12 W/m2
06:52 60.3 °F 57.4 °F 29.9 in Calm     90% 0 in 18 W/m2
06:57 60.3 °F 57.4 °F 29.9 in NW 2.2 mph 3.1 mph 90% 0 in 25 W/m2
07:02 60.4 °F 57.6 °F 29.9 in North 1.6 mph 3.1 mph 90% 0 in 63 W/m2
07:07 61.2 °F 58.3 °F 29.9 in North 1.6 mph 3.1 mph 90% 0 in 85 W/m2
07:13 62.4 °F 59.2 °F 29.9 in Calm   4.5 mph 89% 0 in 101 W/m2
07:18 63.3 °F 58.8 °F 29.9 in North 3.1 mph 4.5 mph 85% 0 in 107 W/m2
07:23 63.7 °F 58.5 °F 29.9 in NNW 1.6 mph 3.8 mph 83% 0 in 54 W/m2
07:28 63.7 °F 58.1 °F 29.9 in NW 1.6 mph 3.8 mph 82% 0 in 107 W/m2
07:33 63.7 °F 58.1 °F 29.9 in NW 0.7 mph 3.8 mph 82% 0 in 54 W/m2
07:38 63.5 °F 57.9 °F 29.9 in NW 1.6 mph 3.1 mph 82% 0 in 50 W/m2
07:43 63.1 °F 57.9 °F 29.9 in NW 1.6 mph 3.1 mph 83% 0 in 56 W/m2
07:48 63.9 °F 58.6 °F 29.9 in NW 1.6 mph 3.1 mph 83% 0 in 111 W/m2
07:53 64.4 °F 59.5 °F 29.9 in NNW 3.8 mph 5.4 mph 84% 0 in 144 W/m2
07:58 65.7 °F 59.4 °F 29.9 in North 3.1 mph 5.4 mph 80% 0 in 160 W/m2
08:03 66.7 °F 58.3 °F 29.9 in NNW 5.4 mph 7.6 mph 74% 0 in 180 W/m2
08:08 68 °F 59 °F 29.9 in NNW 2.2 mph 7.6 mph 73% 0 in 198 W/m2
08:13 68 °F 58.3 °F 29.9 in NNW 4.5 mph 6.9 mph 71% 0 in 215 W/m2
08:18 68.2 °F 57.9 °F 29.9 in NW 3.1 mph 7.6 mph 70% 0 in 233 W/m2
08:23 68.7 °F 58.3 °F 29.9 in NW 3.1 mph 7.6 mph 69% 0 in 234 W/m2
08:28 69.6 °F 58.3 °F 29.9 in NNW 2.2 mph 6 mph 67% 0 in 243 W/m2
08:33 70.2 °F 58.3 °F 29.9 in NNW 3.1 mph 6 mph 66% 0 in 256 W/m2
08:38 70.3 °F 57.6 °F 29.9 in NNW 3.8 mph 6 mph 64% 0 in 272 W/m2
08:43 70.9 °F 57.7 °F 29.9 in NNW 3.1 mph 6 mph 63% 0 in 278 W/m2
08:48 71.6 °F 58.5 °F 29.9 in NNW 2.2 mph 6 mph 63% 0 in 289 W/m2
08:53 72.5 °F 58.3 °F 29.9 in NNW 0.7 mph 5.4 mph 61% 0 in 308 W/m2
08:58 73.4 °F 58.3 °F 29.9 in NNW 3.1 mph 5.4 mph 59% 0 in 337 W/m2
09:03 72.9 °F 57.4 °F 29.9 in North 3.1 mph 6.9 mph 58% 0 in 378 W/m2
09:08 74.5 °F 57.4 °F 29.9 in North 3.1 mph 6.9 mph 55% 0 in 435 W/m2
09:13 74.1 °F 56.5 °F 29.9 in NNE 2.2 mph 6.9 mph 54% 0 in 368 W/m2
09:18 74.1 °F 56.5 °F 29.9 in NNE 3.8 mph 6.9 mph 54% 0 in 482 W/m2
09:23 75.2 °F 55.9 °F 29.9 in NNE 3.8 mph 6 mph 51% 0 in 472 W/m2
09:28 75.9 °F 55.9 °F 29.9 in NE 3.8 mph 8.3 mph 50% 0 in 425 W/m2
09:33 76.1 °F 56.1 °F 29.9 in NE 3.8 mph 8.3 mph 50% 0 in 416 W/m2
09:38 75.9 °F 55.9 °F 29.9 in NNE 2.2 mph 8.3 mph 50% 0 in 436 W/m2
09:43 76.6 °F 56.7 °F 29.9 in NNE 2.2 mph 4.5 mph 50% 0 in 496 W/m2
09:48 75.7 °F 55.2 °F 29.9 in NNW 3.1 mph 6 mph 49% 0 in 243 W/m2
09:53 75.2 °F 54.9 °F 29.9 in Calm   6 mph 49% 0 in 263 W/m2
09:58 75.6 °F 57.7 °F 29.9 in ENE 3.8 mph 6.9 mph 54% 0 in 405 W/m2
10:03 74.3 °F 58.6 °F 29.9 in SE 2.2 mph 7.6 mph 58% 0 in 296 W/m2
10:08 72.5 °F 59.2 °F 29.9 in SSE 3.8 mph 9.8 mph 63% 0 in 338 W/m2
10:13 72.5 °F 59.7 °F 29.9 in SE 4.5 mph 9.8 mph 64% 0 in 546 W/m2
10:18 73.2 °F 60.3 °F 29.9 in SSE 6 mph 10.7 mph 64% 0 in 572 W/m2
10:23 73.6 °F 62.1 °F 29.9 in SE 2.2 mph 10.7 mph 67% 0 in 597 W/m2
10:28 73.4 °F 61.9 °F 29.9 in ESE 3.1 mph 10.7 mph 67% 0 in 558 W/m2
10:33 74.3 °F 63.1 °F 29.9 in SSE 3.8 mph 9.2 mph 68% 0 in 620 W/m2
10:38 74.3 °F 63.5 °F 29.9 in SSE 4.5 mph 9.2 mph 69% 0 in 352 W/m2
10:43 73.8 °F 63 °F 29.9 in ESE 3.1 mph 8.3 mph 69% 0 in 645 W/m2
10:48 73.9 °F 62.8 °F 29.9 in SE 7.6 mph 10.7 mph 68% 0 in 673 W/m2
10:53 73 °F 62.2 °F 29.9 in South 4.5 mph 10.7 mph 69% 0 in 689 W/m2
10:58 73.8 °F 62.2 °F 29.9 in South 5.4 mph 10.7 mph 67% 0 in 709 W/m2
11:03 74.3 °F 63.1 °F 29.9 in South 3.1 mph 9.8 mph 68% 0 in 733 W/m2
11:08 73.9 °F 62.2 °F 29.9 in SSE 6.9 mph 9.2 mph 67% 0 in 759 W/m2
11:13 74.1 °F 62.1 °F 29.9 in SE 3.8 mph 9.2 mph 66% 0 in 798 W/m2
11:18 74.1 °F 61.5 °F 29.9 in SE 4.5 mph 9.2 mph 65% 0 in 747 W/m2
11:23 73.9 °F 61.5 °F 29.9 in SSE 7.6 mph 11.4 mph 65% 0 in 840 W/m2
11:28 72.3 °F 59.5 °F 29.9 in South 9.8 mph 11.4 mph 64% 0 in 842 W/m2
11:33 72.1 °F 59.7 °F 29.9 in South 6 mph 11.4 mph 65% 0 in 870 W/m2
11:38 73 °F 59.7 °F 29.9 in SSE 2.2 mph 11.4 mph 63% 0 in 884 W/m2
11:43 73.2 °F 59.5 °F 29.9 in SSE 7.6 mph 10.7 mph 62% 0 in 916 W/m2
11:48 71.6 °F 57.6 °F 29.9 in South 5.4 mph 10.7 mph 61% 0 in 918 W/m2
11:53 72.7 °F 58.8 °F 29.9 in South 6.9 mph 11.4 mph 62% 0 in 945 W/m2
11:58 72.3 °F 58.1 °F 29.9 in South 4.5 mph 11.4 mph 61% 0 in 962 W/m2
12:03 72.7 °F 58.8 °F 29.9 in SSE 5.4 mph 11.4 mph 62% 0 in 1018 W/m2
12:08 73.2 °F 59.5 °F 29.9 in SSE 4.5 mph 10.7 mph 62% 0 in 704 W/m2
12:13 73 °F 58.8 °F 29.9 in SSE 6 mph 12.1 mph 61% 0 in 926 W/m2
12:19 74.1 °F 58.5 °F 29.9 in SSE 5.4 mph 12.1 mph 58% 0 in 956 W/m2
12:24 73.8 °F 58.1 °F 29.9 in SSE 5.4 mph 10.7 mph 58% 0 in 1098 W/m2
12:29 74.5 °F 58.8 °F 29.9 in South 3.8 mph 10.7 mph 58% 0 in 1122 W/m2
12:34 75 °F 58.8 °F 29.9 in South 2.2 mph 10.7 mph 57% 0 in 1167 W/m2
12:39 75.9 °F 58.6 °F 29.9 in SSE 6 mph 10.7 mph 55% 0 in 1162 W/m2
12:49 75 °F 59.4 °F 29.9 in South 4.5 mph 12.1 mph 58% 0 in 1150 W/m2
12:54 75.2 °F 57.9 °F 29.9 in SSE 2.2 mph 12.1 mph 55% 0 in 1068 W/m2
12:59 75.7 °F 57.9 °F 29.9 in SE 8.3 mph 12.1 mph 54% 0 in 1037 W/m2
13:04 73.9 °F 57.4 °F 29.9 in SSE 6 mph 12.1 mph 56% 0 in 1029 W/m2
13:09 73 °F 58.8 °F 29.9 in South 4.5 mph 12.1 mph 61% 0 in 895 W/m2
13:15 73 °F 58.5 °F 29.9 in SSE 4.5 mph 13.6 mph 60% 0 in 997 W/m2
13:21 73.2 °F 59 °F 29.9 in SSE 5.4 mph 13.6 mph 61% 0 in 1052 W/m2
13:26 73.4 °F 61 °F 29.9 in SSE 7.6 mph 12.1 mph 65% 0 in 996 W/m2
13:31 74.1 °F 61.5 °F 29.9 in SE 4.5 mph 12.1 mph 65% 0 in 907 W/m2
13:36 75.4 °F 61.5 °F 29.9 in SSE 6.9 mph 10.7 mph 62% 0 in 1005 W/m2
13:41 74.5 °F 59.7 °F 29.9 in South 5.4 mph 10.7 mph 60% 0 in 836 W/m2
13:46 73.4 °F 61 °F 29.9 in South 5.4 mph 10.7 mph 65% 0 in 633 W/m2
13:51 73.4 °F 61 °F 29.9 in SSE 4.5 mph 11.4 mph 65% 0 in 420 W/m2
13:56 73.2 °F 60.3 °F 29.9 in SE 5.4 mph 11.4 mph 64% 0 in 868 W/m2
14:01 73 °F 60.6 °F 29.9 in SSE 4.5 mph 10.7 mph 65% 0 in 541 W/m2
14:07 73.8 °F 60.4 °F 29.9 in SSE 6.9 mph 12.1 mph 63% 0 in 730 W/m2
14:12 73 °F 60.3 °F 29.9 in SSE 3.8 mph 12.1 mph 64% 0 in 943 W/m2
14:18 73.6 °F 62.1 °F 29.9 in SSE 5.4 mph 10.7 mph 67% 0 in 434 W/m2
14:24 73 °F 61 °F 29.9 in SE 4.5 mph 10.7 mph 66% 0 in 548 W/m2
14:29 72.7 °F 60.6 °F 29.9 in SSE 5.4 mph 12.1 mph 66% 0 in 469 W/m2
14:34 71.8 °F 61.5 °F 29.9 in SSE 4.5 mph 12.1 mph 70% 0 in 299 W/m2
14:39 71.1 °F 61.2 °F 29.9 in SSE 4.5 mph 13 mph 71% 0 in 356 W/m2
14:45 71.2 °F 61.9 °F 29.9 in SSE 3.8 mph 13 mph 72% 0 in 373 W/m2
14:50 71.8 °F 61.9 °F 29.9 in SE 4.5 mph 11.4 mph 71% 0 in 586 W/m2
14:55 72.3 °F 62.1 °F 29.9 in SE 4.5 mph 11.4 mph 70% 0 in 747 W/m2
15:00 72.1 °F 61.9 °F 29.9 in SSE 7.6 mph 13.6 mph 70% 0 in 574 W/m2
15:06 71.8 °F 60.6 °F 29.9 in SE 6 mph 13.6 mph 68% 0 in 727 W/m2
15:11 71.6 °F 60.4 °F 29.9 in SSE 6.9 mph 17.4 mph 68% 0 in 659 W/m2
15:16 72.7 °F 60.6 °F 29.9 in SSE 8.3 mph 17.4 mph 66% 0 in 611 W/m2
15:21 72.5 °F 61 °F 29.9 in SE 5.4 mph 18.3 mph 67% 0 in 553 W/m2
15:27 73 °F 62.2 °F 29.9 in SE 5.4 mph 18.3 mph 69% 0 in 767 W/m2
15:32 73.4 °F 62.2 °F 29.9 in SE 4.5 mph 13 mph 68% 0 in 488 W/m2
15:37 73.2 °F 61.2 °F 29.9 in SE 5.4 mph 14.5 mph 66% 0 in 637 W/m2
15:42 72.7 °F 61.2 °F 29.9 in SE 8.3 mph 16.8 mph 67% 0 in 304 W/m2
15:47 71.8 °F 61.2 °F 29.9 in SSE 6 mph 16.8 mph 69% 0 in 374 W/m2
15:52 71.6 °F 61.3 °F 29.9 in SSE 5.4 mph 16.8 mph 70% 0 in 381 W/m2
15:57 71.6 °F 60.4 °F 29.9 in SSE 8.3 mph 13.6 mph 68% 0 in 559 W/m2
16:02 71.8 °F 61.9 °F 29.9 in SE 6 mph 13.6 mph 71% 0 in 619 W/m2
16:07 73 °F 62.2 °F 29.9 in SE 7.6 mph 15.9 mph 69% 0 in 474 W/m2
16:12 73.8 °F 61.7 °F 29.9 in SE 5.4 mph 15.9 mph 66% 0 in 472 W/m2
16:17 73.2 °F 59.9 °F 29.9 in SE 6 mph 13.6 mph 63% 0 in 432 W/m2
16:22 73.2 °F 60.3 °F 29.9 in SE 8.3 mph 13.6 mph 64% 0 in 423 W/m2
16:27 73.6 °F 61.5 °F 29.9 in SE 6.9 mph 13.6 mph 66% 0 in 236 W/m2
16:32 73.9 °F 62.2 °F 29.9 in SE 4.5 mph 13.6 mph 67% 0 in 276 W/m2
16:37 74.3 °F 61.9 °F 29.9 in SE 6.9 mph 14.5 mph 65% 0 in 570 W/m2
16:42 74.8 °F 62.2 °F 29.9 in SE 4.5 mph 14.5 mph 65% 0 in 456 W/m2
16:47 75.2 °F 62.8 °F 29.9 in SE 8.3 mph 13 mph 65% 0 in 363 W/m2
16:52 73 °F 61.9 °F 29.9 in SE 6.9 mph 13 mph 68% 0 in 481 W/m2
16:57 73.2 °F 63 °F 29.9 in SSE 5.4 mph 11.4 mph 70% 0 in 324 W/m2
17:02 72.7 °F 62.4 °F 29.9 in SE 6 mph 14.5 mph 70% 0 in 256 W/m2
17:07 73 °F 63.5 °F 29.9 in SE 4.5 mph 14.5 mph 72% 0 in 321 W/m2
17:12 73.4 °F 62.2 °F 29.9 in SE 6 mph 12.1 mph 68% 0 in 349 W/m2
17:17 73.9 °F 62.2 °F 29.9 in ESE 6 mph 12.1 mph 67% 0 in 295 W/m2
17:22 73.8 °F 61.7 °F 29.9 in ESE 5.4 mph 12.1 mph 66% 0 in 338 W/m2
17:27 73.8 °F 61.7 °F 29.9 in ESE 5.4 mph 12.1 mph 66% 0 in 254 W/m2
17:32 73.6 °F 61.5 °F 29.9 in ESE 6 mph 11.4 mph 66% 0 in 319 W/m2
17:37 73.6 °F 62.1 °F 29.9 in SE 3.8 mph 10.7 mph 67% 0 in 206 W/m2
17:42 73.6 °F 62.1 °F 29.9 in SE 8.3 mph 10.7 mph 67% 0 in 236 W/m2
17:47 73.2 °F 61.5 °F 29.9 in ESE 5.4 mph 9.8 mph 67% 0 in 250 W/m2
17:52 73.6 °F 62.4 °F 29.9 in ESE 5.4 mph 9.8 mph 68% 0 in 165 W/m2
17:57 72.7 °F 61.5 °F 29.9 in ESE 3.8 mph 9.2 mph 68% 0 in 137 W/m2
18:02 72 °F 61.7 °F 29.9 in ESE 3.8 mph 9.8 mph 70% 0 in 149 W/m2
18:07 71.6 °F 61.7 °F 29.9 in ESE 3.8 mph 9.8 mph 71% 0 in 120 W/m2
18:13 70.9 °F 61.3 °F 29.9 in SE 5.4 mph 10.7 mph 72% 0 in 135 W/m2
18:18 70.9 °F 61.9 °F 29.9 in ESE 6 mph 10.7 mph 73% 0 in 119 W/m2
18:23 70.9 °F 61.9 °F 29.9 in SE 5.4 mph 10.7 mph 73% 0 in 158 W/m2
18:28 70.9 °F 61.9 °F 29.9 in SE 6.9 mph 10.7 mph 73% 0 in 136 W/m2
18:33 70.9 °F 62.2 °F 29.9 in SE 3.8 mph 9.2 mph 74% 0 in 107 W/m2
18:38 70.5 °F 61.9 °F 29.9 in SE 5.4 mph 9.2 mph 74% 0 in 100 W/m2
18:43 70.3 °F 61.7 °F 29.9 in SE 2.2 mph 9.2 mph 74% 0 in 116 W/m2
18:48 70.3 °F 61.7 °F 29.9 in ESE 4.5 mph 9.2 mph 74% 0 in 116 W/m2
18:53 70.5 °F 61.9 °F 29.9 in SE 4.5 mph 8.3 mph 74% 0 in 95 W/m2
18:58 70.2 °F 61.9 °F 29.9 in SE 3.8 mph 9.2 mph 75% 0 in 79 W/m2
19:03 70 °F 61.7 °F 29.9 in SE 3.8 mph 9.2 mph 75% 0 in 73 W/m2
19:08 70 °F 62.1 °F 29.9 in SE 3.1 mph 8.3 mph 76% 0 in 55 W/m2
19:13 69.8 °F 61.9 °F 29.9 in SE 3.8 mph 8.3 mph 76% 0 in 43 W/m2
19:18 69.4 °F 62.2 °F 29.9 in SE 2.2 mph 12.1 mph 78% 0 in 53 W/m2
19:23 69.3 °F 62.1 °F 29.9 in SE 3.8 mph 12.1 mph 78% 0 in 60 W/m2
19:28 69.3 °F 62.1 °F 29.9 in SE 3.8 mph 8.3 mph 78% 0 in 44 W/m2
19:33 69.3 °F 62.4 °F 29.9 in SE 2.2 mph 8.3 mph 79% 0 in 34 W/m2
19:38 69.3 °F 62.4 °F 29.9 in SE 0.7 mph 7.6 mph 79% 0 in 34 W/m2
19:43 69.1 °F 62.2 °F 29.9 in SE 2.2 mph 7.6 mph 79% 0 in 22 W/m2
19:48 68.9 °F 62.1 °F 29.9 in SSE 3.8 mph 7.6 mph 79% 0 in 19 W/m2
19:53 68.7 °F 62.2 °F 29.9 in SE 3.1 mph 7.6 mph 80% 0 in 13 W/m2
20:11 68 °F 62.2 °F 29.9 in SE 5.4 mph 10.7 mph 82% 0 in 0 W/m2
20:16 67.8 °F 62.4 °F 29.9 in SE 4.5 mph 10.7 mph 83% 0 in 0 W/m2
20:21 67.6 °F 62.1 °F 29.9 in SE 3.8 mph 10.7 mph 82% 0 in 0 W/m2
20:26 67.5 °F 61.9 °F 29.9 in SSE 6 mph 11.4 mph 82% 0 in 0 W/m2
20:31 67.5 °F 61.9 °F 30 in SE 3.1 mph 11.4 mph 82% 0 in 0 W/m2
20:36 67.5 °F 61.9 °F 30 in ESE 2.2 mph 10.7 mph 82% 0 in 0 W/m2
20:41 67.3 °F 61.5 °F 30 in SE 3.1 mph 9.2 mph 82% 0 in 0 W/m2
20:46 67.3 °F 61.5 °F 30 in SE 4.5 mph 9.2 mph 82% 0 in 0 W/m2
20:51 67.3 °F 61.5 °F 30 in ESE 3.1 mph 7.6 mph 82% 0 in 0 W/m2
20:56 67.3 °F 61.5 °F 30 in ESE 1.6 mph 9.8 mph 82% 0 in 0 W/m2
21:01 67.1 °F 61.2 °F 30 in ESE 5.4 mph 9.8 mph 81% 0 in 0 W/m2
21:06 67.1 °F 61.3 °F 30 in ESE 2.2 mph 9.2 mph 82% 0 in 0 W/m2
21:11 67.1 °F 61.3 °F 30 in SE 2.2 mph 9.2 mph 82% 0 in 0 W/m2
21:16 67.1 °F 61.2 °F 30 in SSE 6 mph 9.2 mph 81% 0 in 0 W/m2
21:21 67.1 °F 61.2 °F 30 in SE 4.5 mph 10.7 mph 81% 0 in 0 W/m2
21:26 67.1 °F 61.2 °F 30 in SE 7.6 mph 10.7 mph 81% 0 in 0 W/m2
21:31 67.1 °F 61.2 °F 30 in ESE 4.5 mph 11.4 mph 81% 0 in 0 W/m2
21:36 67.1 °F 61.2 °F 30 in ESE 4.5 mph 11.4 mph 81% 0 in 0 W/m2
21:41 67.1 °F 61.2 °F 30 in SE 4.5 mph 10.7 mph 81% 0 in 0 W/m2
21:46 67.1 °F 60.6 °F 30 in SE 3.8 mph 10.7 mph 80% 0 in 0 W/m2
21:51 67.1 °F 60.6 °F 30 in SSE 3.8 mph 10.7 mph 80% 0 in 0 W/m2
21:56 66.9 °F 60.6 °F 30 in SSE 4.5 mph 10.7 mph 80% 0 in 0 W/m2
22:01 67.1 °F 60.6 °F 30 in SE 3.1 mph 12.1 mph 80% 0 in 0 W/m2
22:06 66.9 °F 61 °F 30 in SE 3.1 mph 12.1 mph 81% 0 in 0 W/m2
22:11 66.9 °F 60.6 °F 30 in ESE 3.1 mph 8.3 mph 80% 0 in 0 W/m2
22:16 66.9 °F 60.6 °F 30 in SE 6 mph 9.2 mph 80% 0 in 0 W/m2
22:21 66.9 °F 60.3 °F 30 in ESE 3.1 mph 10.7 mph 79% 0 in 0 W/m2
22:27 66.9 °F 60.6 °F 30 in ESE 2.2 mph 10.7 mph 80% 0 in 0 W/m2
22:32 66.9 °F 60.6 °F 30 in SE 2.2 mph 9.2 mph 80% 0 in 0 W/m2
22:37 66.9 °F 60.6 °F 30 in SE 3.1 mph 9.2 mph 80% 0 in 0 W/m2
22:42 66.9 °F 60.6 °F 30 in SE 2.2 mph 8.3 mph 80% 0 in 0 W/m2
22:47 66.9 °F 61 °F 30 in SSE 3.8 mph 9.2 mph 81% 0 in 0 W/m2
22:52 66.9 °F 61 °F 30 in SE 3.8 mph 9.2 mph 81% 0 in 0 W/m2
22:57 66.9 °F 61 °F 30 in ESE 5.4 mph 9.2 mph 81% 0 in 0 W/m2
23:02 66.9 °F 60.6 °F 30 in ESE 3.1 mph 9.2 mph 80% 0 in 0 W/m2
23:07 66.9 °F 60.3 °F 30 in ESE 3.8 mph 11.4 mph 79% 0 in 0 W/m2
23:12 66.7 °F 60.1 °F 30 in ESE 5.4 mph 13 mph 79% 0 in 0 W/m2
23:17 66.7 °F 60.1 °F 30 in East 4.5 mph 13 mph 79% 0 in 0 W/m2
23:22 66.6 °F 60.3 °F 30 in East 4.5 mph 10.7 mph 80% 0 in 0 W/m2
23:27 66.6 °F 60.3 °F 30 in East 5.4 mph 12.1 mph 80% 0 in 0 W/m2
23:32 66.6 °F 60.6 °F 30 in ESE 4.5 mph 12.1 mph 81% 0 in 0 W/m2
23:38 66.6 °F 60.6 °F 30 in East 4.5 mph 10.7 mph 81% 0 in 0 W/m2
23:43 66.4 °F 60.6 °F 30 in East 5.4 mph 10.7 mph 82% 0 in 0 W/m2
23:48 66.4 °F 61.2 °F 30 in East 4.5 mph 9.2 mph 83% 0 in 0 W/m2
23:53 66.2 °F 61 °F 30 in East 3.8 mph 9.2 mph 83% 0 in 0 W/m2
Northern Hawkes Bay. New Zealand Historic Data
Compliments of Weather Underground - 2 mb